Waarnemingen

Advertentie
Mijn weer
Laupheim, Duitsland (10837): temperatuur & dauwpunt: 12.11.2017 03:00:00 - 18.11.2017 03:00:00 (CET)Laupheim, Duitsland (10837): windsnelheid & windstoten: 12.11.2017 03:00:00 - 18.11.2017 03:00:00 (CET)Laupheim, Duitsland (10837): windrichting: 12.11.2017 03:00:00 - 18.11.2017 03:00:00 (CET)Laupheim, Duitsland (10837): luchtdruk: 12.11.2017 03:00:00 - 18.11.2017 03:00:00 (CET)Laupheim, Duitsland (10837): zicht: 12.11.2017 03:00:00 - 18.11.2017 03:00:00 (CET)
Datum & Tijd tt [°C] td [°C] ff [km/u] ff [kn] fx [km/u] fx [kn] dd ppp [hPa] vv [km]
18.11.2017 03:00:00 2,2 2,0 4 2 - - WNW 1025,3 1,2
18.11.2017 02:00:00 1,9 1,6 4 2 - - OZO 1025,5 1,2
18.11.2017 01:00:00 1,8 1,6 4 2 - - O 1025,8 1,5
18.11.2017 00:00:00 2,1 1,8 4 2 - - O 1026,2 0,8
17.11.2017 23:00:00 2,2 1,8 4 2 - - O 1026,6 1,8
17.11.2017 22:00:00 2,3 1,8 7 4 - - O 1026,7 3,7
17.11.2017 21:00:00 2,5 1,7 4 2 - - NNO 1026,7 4,0
17.11.2017 20:00:00 2,5 1,8 7 4 - - NO 1026,9 3,2
17.11.2017 19:00:00 2,5 1,8 7 4 - - O 1026,9 3,2
17.11.2017 18:00:00 2,7 1,6 7 4 - - ONO 1026,8 3,5
17.11.2017 17:00:00 2,9 1,6 7 4 - - ONO 1026,7 3,5
17.11.2017 16:00:00 3,1 1,7 7 4 - - NO 1026,6 5
17.11.2017 15:00:00 2,8 1,5 4 2 - - - 1026,9 5
17.11.2017 14:00:00 2,4 1,1 4 2 - - NO 1027,3 3,5
17.11.2017 13:00:00 2,0 0,7 4 2 - - NNW 1027,6 3,0
17.11.2017 12:00:00 1,5 0,4 0 0 - - N 1027,9 2,8
17.11.2017 11:00:00 0,9 0,1 4 2 - - N 1028,4 2,0
17.11.2017 10:00:00 0,2 -1,1 4 2 - - NW 1028,5 2,5
17.11.2017 09:00:00 -0,3 -1,4 4 2 - - ZW 1028,5 4,0
17.11.2017 08:00:00 -0,6 -1,6 7 4 - - W 1028,3 3,7
17.11.2017 07:00:00 -0,8 -1,7 7 4 - - W 1028,3 4,0
17.11.2017 06:00:00 -1,0 -1,9 7 4 - - WZW 1028,3 3,7
17.11.2017 05:00:00 -1,4 -2,2 11 6 - - WZW 1028,4 3,7
17.11.2017 04:00:00 -1,6 -2,6 7 4 - - WZW 1028,5 4,0
17.11.2017 03:00:00 -1,3 -2,5 7 4 - - ZZW 1028,3 4,8
17.11.2017 02:00:00 -1,0 -2,5 7 4 - - ZW 1028,1 4,8
17.11.2017 01:00:00 -0,8 -2,5 7 4 - - WZW 1028,4 5
17.11.2017 00:00:00 -0,7 -2,5 7 4 - - ZW 1027,8 5
16.11.2017 23:00:00 -0,5 -2,5 7 4 - - WZW 1027,7 5
16.11.2017 22:00:00 -0,5 -2,5 7 4 - - W 1027,5 6
16.11.2017 21:00:00 -0,4 -2,4 7 4 - - W 1027,4 5
16.11.2017 20:00:00 -0,5 -2,3 7 4 - - WZW 1027,2 5
16.11.2017 19:00:00 -0,5 -2,3 7 4 - - ZW 1027,0 5
16.11.2017 18:00:00 -0,6 -2,4 7 4 - - N 1026,8 5
16.11.2017 17:00:00 -0,5 -2,4 7 4 - - WZW 1026,4 6
16.11.2017 16:00:00 -0,7 -2,6 7 4 - - N 1026,3 6
16.11.2017 15:00:00 -0,3 -2,5 7 4 - - N 1026,1 6
16.11.2017 14:00:00 -0,3 -2,4 4 2 - - O 1026,0 6
16.11.2017 13:00:00 -0,5 -2,3 7 4 - - ZZW 1026,2 6
16.11.2017 12:00:00 -0,8 -2,3 5 3 - - ZW 1026,6 6
16.11.2017 11:00:00 -0,8 -2,3 7 4 - - N 1026,8 5
16.11.2017 10:00:00 -0,9 -2,2 7 4 - - ONO 1026,8 5
16.11.2017 09:00:00 -0,9 -2,1 11 6 - - O 1026,7 4,5
16.11.2017 08:00:00 -0,9 -2,3 7 4 - - ONO 1026,4 4,5
16.11.2017 07:00:00 -0,9 -2,5 11 6 - - OZO 1026,0 4,5
16.11.2017 06:00:00 -0,8 -2,3 14 8 - - O 1025,8 4,5
16.11.2017 05:00:00 -0,8 -1,7 11 6 - - O 1025,9 4,0
16.11.2017 04:00:00 -0,9 -1,9 11 6 - - O 1026,3 4,0
16.11.2017 03:00:00 -0,9 -1,8 11 6 - - O 1026,4 4,0
16.11.2017 02:00:00 -0,8 -2,1 11 6 - - ONO 1026,7 4,5
16.11.2017 01:00:00 -0,8 -2,2 11 6 - - NO 1026,9 4,5
16.11.2017 00:00:00 -0,9 -2,1 14 8 - - ONO 1027,2 4,5
15.11.2017 23:00:00 -0,9 -2,1 14 8 - - ONO 1027,5 4,5
15.11.2017 22:00:00 -0,8 -2,2 14 8 - - ONO 1028,1 4,5
15.11.2017 21:00:00 -0,7 -1,7 14 8 - - ONO 1028,1 4,5
15.11.2017 20:00:00 -0,6 -1,5 14 8 - - ONO 1028,1 5
15.11.2017 19:00:00 -0,5 -1,6 14 8 - - ONO 1028,0 6
15.11.2017 18:00:00 -0,3 -1,4 14 8 - - ONO 1027,7 6
15.11.2017 17:00:00 0,1 -1,1 14 8 - - NO 1027,5 7
15.11.2017 16:00:00 0,4 -1,2 18 10 - - ONO 1027,5 7
15.11.2017 15:00:00 0,7 -0,7 16 9 - - ONO 1027,7 7
15.11.2017 14:00:00 0,3 -1,0 18 10 - - ONO 1027,9 7
15.11.2017 13:00:00 0,0 -0,7 18 10 - - NO 1028,6 6
15.11.2017 12:00:00 -0,5 -1,0 11 6 - - ONO 1029,4 6
15.11.2017 11:00:00 -1,0 -1,4 14 8 - - ONO 1030,0 4,0
15.11.2017 10:00:00 -1,3 -1,7 14 8 - - ONO 1030,0 3,5
15.11.2017 09:00:00 -2,0 -2,4 11 6 - - O 1030,2 3,2
15.11.2017 08:00:00 -1,9 -2,2 14 8 - - O 1029,8 1,6
15.11.2017 07:00:00 -1,7 -2,0 9 5 - - ONO 1029,4 1,2
15.11.2017 06:00:00 -1,6 -1,9 7 4 - - NO 1029,0 0,3
15.11.2017 05:00:00 -1,8 -2,1 4 2 - - N 1029,4 0,2
15.11.2017 04:00:00 -2,0 -2,3 7 4 - - O 1029,6 0,1
15.11.2017 03:00:00 -2,1 -2,4 7 4 - - N 1029,8 0,1
15.11.2017 02:00:00 -2,1 -2,4 7 4 - - N 1029,7 0,1
15.11.2017 01:00:00 -1,8 -2,1 4 2 - - NO 1029,9 0,1
15.11.2017 00:00:00 -1,8 -2,1 4 2 - - O 1030,4 0,1
14.11.2017 23:00:00 -1,8 -2,0 4 2 - - N 1030,5 0,1
14.11.2017 22:00:00 -1,6 -1,9 7 4 - - NO 1030,4 0,2
14.11.2017 21:00:00 -1,8 -2,1 4 2 - - O 1030,1 1,5
14.11.2017 20:00:00 -1,6 -2,0 0 0 - - N 1029,9 3,0
14.11.2017 19:00:00 -1,0 -1,5 4 2 - - NO 1029,3 4,5
14.11.2017 18:00:00 0,1 -0,5 4 2 - - ONO 1028,7 6
14.11.2017 17:00:00 1,0 -0,2 4 2 - - NO 1027,9 6
14.11.2017 16:00:00 1,8 -0,2 4 2 - - O 1027,4 9
14.11.2017 15:00:00 2,2 0,3 7 4 - - O 1027,3 10
14.11.2017 14:00:00 2,0 1,0 4 2 - - - 1027,4 8
14.11.2017 13:00:00 0,6 0,4 5 3 - - NNO 1027,9 3,0
14.11.2017 12:00:00 -0,3 -0,5 4 2 - - N 1028,2 0,2
14.11.2017 11:00:00 -0,8 -1,0 4 2 - - N 1028,6 0,2
14.11.2017 10:00:00 -1,5 -1,8 4 2 - - O 1028,9 0,1
14.11.2017 09:00:00 -2,0 -2,2 4 2 - - O 1028,4 0,1
14.11.2017 08:00:00 -2,6 -2,9 4 2 - - NNW 1027,9 0,2
14.11.2017 07:00:00 -2,4 -2,7 4 2 - - ZZW 1027,1 0,7
14.11.2017 06:00:00 -2,2 -2,4 4 2 - - O 1026,5 0,7
14.11.2017 05:00:00 -1,8 -2,1 2 1 - - ONO 1026,0 0,8
14.11.2017 04:00:00 -1,4 -1,7 4 2 - - Z 1025,5 3,0
14.11.2017 03:00:00 -0,8 -1,1 4 2 - - - 1025,0 6
14.11.2017 02:00:00 0,1 -0,4 4 2 - - O 1024,3 15
14.11.2017 01:00:00 1,1 0,5 4 2 - - NO 1023,7 18
14.11.2017 00:00:00 1,3 0,6 0 0 - - N 1023,4 20
13.11.2017 23:00:00 1,5 0,7 4 2 - - N 1023,2 20
13.11.2017 22:00:00 1,5 0,5 4 2 - - WZW 1022,5 20
13.11.2017 21:00:00 1,4 0,2 0 0 - - N 1021,9 25
13.11.2017 20:00:00 2,1 0,3 4 2 - - N 1021,2 20
13.11.2017 19:00:00 3,0 0,8 4 2 - - NNW 1020,7 20
13.11.2017 18:00:00 2,9 1,0 7 4 - - NNW 1019,8 30
13.11.2017 17:00:00 2,5 1,0 4 2 - - N 1019,1 30
13.11.2017 16:00:00 2,4 0,7 14 8 - - NO 1018,2 30
13.11.2017 15:00:00 4,0 0,0 11 6 - - NNW 1016,6 40
13.11.2017 14:00:00 4,2 -0,3 11 6 - - NO 1016,1 40
13.11.2017 13:00:00 3,5 0,9 11 6 - - N 1015,9 12
13.11.2017 12:00:00 3,4 0,5 13 7 - - N 1015,4 10
13.11.2017 11:00:00 3,1 0,5 11 6 - - N 1015,4 8
13.11.2017 10:00:00 2,5 1,0 11 6 - - N 1014,5 15
13.11.2017 09:00:00 1,6 0,9 7 4 - - W 1014,3 12
13.11.2017 08:00:00 1,2 0,5 5 3 - - W 1013,7 6
13.11.2017 07:00:00 1,4 0,6 5 3 - - W 1012,3 6
13.11.2017 06:00:00 1,3 0,7 11 6 - - W 1011,4 12
13.11.2017 05:00:00 1,0 0,4 7 4 - - WZW 1010,9 10
13.11.2017 04:00:00 0,5 0,0 7 4 - - W 1010,3 8
13.11.2017 03:00:00 0,8 0,2 7 4 - - W 1010,0 2,8
13.11.2017 02:00:00 1,1 -0,4 11 6 - - W 1009,8 8
13.11.2017 01:00:00 1,8 -0,2 11 6 - - WZW 1009,1 20
13.11.2017 00:00:00 1,7 -0,2 14 8 - - W 1008,3 20
12.11.2017 23:00:00 1,1 -0,4 14 8 - - W 1007,8 20
12.11.2017 22:00:00 1,4 -0,1 11 6 - - W 1007,2 20
12.11.2017 21:00:00 2,0 0,7 11 6 - - W 1006,8 20
12.11.2017 20:00:00 2,2 0,7 18 10 - - W 1006,2 20
12.11.2017 19:00:00 2,5 0,7 18 10 - - W 1004,5 22
12.11.2017 18:00:00 3,3 1,2 18 10 47 25 WNW 1001,4 20
12.11.2017 17:00:00 4,1 2,4 24 13 - - W 998,6 10
12.11.2017 16:00:00 4,3 2,7 26 14 - - WZW 998,5 10
12.11.2017 15:00:00 9,3 5,6 39 21 76 41 W 995,6 1,5
12.11.2017 14:00:00 9,0 6,2 36 19 72 39 ZW 997,1 35
12.11.2017 13:00:00 9,2 5,8 43 23 - - WZW 998,8 35
12.11.2017 12:00:00 9,3 6,7 42 23 58 31 WZW 1000,3 10
12.11.2017 11:00:00 4,9 4,5 4 2 - - OZO 1003,3 8
12.11.2017 10:00:00 4,4 4,0 7 4 - - ONO 1005,3 5
12.11.2017 09:00:00 4,4 3,9 7 4 - - ZO 1006,9 7
12.11.2017 08:00:00 4,1 3,7 11 6 - - ZO 1007,8 7
12.11.2017 07:00:00 4,2 3,8 4 2 - - NO 1009,0 5
12.11.2017 06:00:00 4,3 3,9 7 4 - - NO 1009,5 3,5
12.11.2017 05:00:00 4,7 4,3 7 4 - - NO 1009,5 2,7
12.11.2017 04:00:00 5,4 5,0 7 4 - - N 1009,7 2,0
12.11.2017 03:00:00 6,2 5,6 11 6 - - N 1009,8 2,5

tt = temperatuur
td = dauwpunt
ff = windsnelheid
fx = windstoten
dd = windrichting
ppp = luchtdruk
vv = zicht

Weerstations in de omgeving